Tracking 31027 objects as of 19-Jul-2025
HD Live streaming from Space Station
objects crossing your sky now

TIANZHI 1

Track TIANZHI 1 now!
10-day predictions


NORAD ID: 43710
Int'l Code: 2018-094A
Perigee: 331.8 km
Apogee: 336.5 km
Inclination: 97.3 °
Period: 91.1 minutes
Semi major axis: 6705 km
RCS: Unknown
Launch date: November 19, 2018
Source: People's Republic of China (PRC)
Launch site: Jiuquan Satellite Launch Center, China (JSC)
Your satellite tracking list
IRIDIUM 33 DEB
Track 1 satellite(s)




NASA's NSSDC Master Catalog

Two Line Element Set (TLE):
1 43710U 18094A   25199.64980449  .00081787  00000-0  41612-3 0  9995
2 43710  97.3278 235.9821 0003477 198.6283 161.4858 15.81205821372380
Source of the keplerian elements: AFSPC